User: anonymous   Login
Location: Byszew
(52.1813°N, 19.2693°E)
Time: 16:27:53
(UTC+00:00)
Language:

Cosmos 1461 - Orbit

View from above orbital plane
View from above orbital plane
View from above satellite
View from above satellite

Ground track
Ground track

The orbit data is extracted from the following two-line orbital elements,

1 14064U 83044A   21127.60569672  .00000291  00000-0  38284-4 0  9999
2 14064  65.0003 204.6181 0108415 211.3855 148.0763 14.95175640935577
Epoch (UTC): 07 May 2021 14:32:12
Eccentricity: 0.0108415
inclination: 65.0003°
perigee height: 506 km
apogee height: 657 km
right ascension of ascending node: 204.6181°
argument of perigee: 211.3855°
revolutions per day: 14.95175640
mean anomaly at epoch: 148.0763°
orbit number at epoch: 93557

The dashed part of the orbit path shows where the satellite is in the earth's shadow,  

DLR